Home > Weather > Gdynia > Past weeks

Flag for Poland Past Weather in Gdynia, Poland — Yesterday and Last 2 Weeks

Now
64 °F

Scattered clouds.


Feels Like: 64 °F
Forecast: 62 / 72 °F
Wind: 3 mph from Southeast

Location: Gdansk-Rebiechowo

Current Time: Jul 29, 2016 at 8:04:04 AM

Latest Report: Jul 29, 2016 at 7:30 AM


Visibility: N/A

Pressure: 29.92 "Hg

Humidity: 94%

Dew Point: 63 °F

Location of GdyniaLocation

Past Weather in Gdynia — Graph

°F

Gdynia Temperature Yesterday

Maximum temperature yesterday: 73 °F (at 2:30 PM)
Minimum temperature yesterday: 63 °F (at 3:30 AM)
Average temperature yesterday: 68 °F

High & Low Weather Summary for the Past Weeks

 TemperatureHumidityPressure
High81 °F (Jul 26, 1:00 PM)100% (Jul 14, 10:00 AM)30.18 "Hg (Jul 14, 10:00 AM)
Low50 °F (Jul 21, 5:00 AM)37% (Jul 26, 12:30 PM)29.56 "Hg (Jul 14, 10:00 PM)
Average63 °F82%30.02 "Hg
* Reported Jul 14 7:00 AM — Jul 29 7:00 AM, Gdynia, Weather by CustomWeather, © 2016

Note: Actual official high and low records may vary slightly from our data, if they occured in-between our weather recording intervals... More about our weather records

Advertising

Gdynia Weather History for the Previous 24 Hours

Scroll right to see more
 ConditionsComfort  
Time TempWeatherWind HumidityBarometerVisibility
7:00 AM
Fri, Jul 29
63 °FScattered clouds.2 mph94%29.92 "Hg4 mi
6:30 AM63 °FClear.1 mph94%29.92 "Hg4 mi
6:00 AM61 °FPassing clouds.1 mph100%29.92 "Hg5 mi
5:30 AM61 °FPassing clouds.1 mph100%29.92 "Hg5 mi
5:00 AM61 °FPassing clouds.2 mph100%29.92 "Hg4 mi
4:30 AM61 °FPassing clouds.2 mph94%29.92 "Hg4 mi
4:00 AM61 °FPassing clouds.2 mph94%29.92 "Hg4 mi
3:30 AM61 °FPassing clouds.1 mph94%29.92 "Hg5 mi
3:00 AM61 °FPassing clouds.2 mph100%29.92 "Hg5 mi
2:30 AM61 °FPassing clouds.3 mph100%29.92 "Hg4 mi
2:00 AM63 °FPassing clouds.2 mph94%29.92 "HgN/A
1:30 AM63 °FPassing clouds.1 mph94%29.95 "HgN/A
1:00 AM63 °FPassing clouds.1 mph100%29.95 "Hg6 mi
12:30 AM63 °FPartly cloudy.1 mph100%29.95 "Hg6 mi
12:00 AM64 °FPassing clouds.2 mph94%29.95 "HgN/A
11:30 PM
Thu, Jul 28
64 °FPassing clouds.2 mph94%29.95 "HgN/A
11:00 PM64 °FClear.2 mph94%29.95 "Hg10 mi
10:30 PM66 °FPassing clouds.2 mph88%29.95 "HgN/A
10:00 PM66 °FPartly cloudy.2 mph88%29.95 "HgN/A
9:30 PM66 °FPassing clouds.2 mph88%29.95 "HgN/A
9:00 PM66 °FSunny.1 mph78%29.95 "Hg10 mi
8:30 PM68 °FPassing clouds.5 mph73%29.95 "HgN/A
8:00 PM70 °FPassing clouds.7 mph69%29.95 "HgN/A
7:30 PM72 °FPassing clouds.8 mph65%29.95 "HgN/A
7:00 PM73 °FPassing clouds.8 mph61%29.95 "HgN/A
6:30 PM73 °FScattered clouds.9 mph57%29.95 "HgN/A
6:00 PM73 °FScattered clouds.8 mph57%29.95 "HgN/A
5:30 PM73 °FScattered clouds.12 mph61%29.95 "HgN/A
5:00 PM73 °FScattered clouds.10 mph65%29.95 "HgN/A
4:30 PM73 °FScattered clouds.13 mph61%29.95 "HgN/A
4:00 PM73 °FScattered clouds.14 mph65%29.95 "HgN/A
3:30 PM73 °FScattered clouds.13 mph65%29.95 "HgN/A
3:00 PM73 °FScattered clouds.7 mph65%29.95 "HgN/A
2:30 PM73 °FScattered clouds.10 mph65%29.95 "HgN/A
2:00 PM72 °FScattered clouds.8 mph78%29.95 "HgN/A
1:30 PM72 °FScattered clouds.14 mph69%29.95 "HgN/A
1:00 PM70 °FPartly sunny.9 mph73%29.95 "HgN/A
12:30 PM70 °FPartly sunny.12 mph73%29.95 "HgN/A
12:00 PM72 °FPartly sunny.12 mph73%29.95 "HgN/A
11:30 AM70 °FScattered clouds.9 mph78%29.95 "HgN/A
11:00 AM70 °FPartly sunny.7 mph78%29.95 "HgN/A
10:30 AM70 °FPartly sunny.9 mph78%29.95 "HgN/A
10:00 AM70 °FPartly sunny.8 mph83%29.92 "HgN/A
9:30 AM68 °FPartly sunny.6 mph88%29.92 "HgN/A
9:00 AM68 °FPartly sunny.6 mph83%29.92 "HgN/A
8:30 AM66 °FScattered clouds.3 mph94%29.92 "HgN/A
8:00 AM64 °FMostly cloudy.3 mph100%29.92 "Hg5 mi
Weather by CustomWeather, © 2016

See weather overviewHow to use our weather pages